This demonstration page uses our WeatherBlox Daily Observations layout. Learn more.

Left ArrowRight Arrow

39.51506, -84.39828

Hourly Observations for September 13, 2015

Temp ( °F °C ) Dew Point ( °F °C ) Humidity (%) Winds ( mph kmh ) Pressure ( in mb ) Visibility ( mi km ) Precip ( " mm )
12:15 am 00:15 Mostly Cloudy 55 12.5 48 8.9 79 79 NNW 3 6 29.97 1015 10 16.0934 0 0
12:35 am 00:35 Cloudy 55 12.5 47 8.3 76 76 N 5 7 29.97 1015 10 16.0934 0 0
12:55 am 00:55 Cloudy 55 12.5 47 8.4 76 76 Calm 29.97 1015 10 16.0934 0 0
1:15 am 01:15 Cloudy 55 12.5 48 8.8 78 78 Calm 29.97 1015 10 16.0934 0 0
1:35 am 01:35 Cloudy 56 13.1 48 9 76 76 NNW 3 6 29.97 1015 10 16.0934 0 0
1:55 am 01:55 Cloudy 56 13.1 48 8.9 76 76 NNW 3 6 29.97 1015 10 16.0934 0 0
2:15 am 02:15 Cloudy 55 12.7 47 8.5 76 76 NNW 5 7 29.97 1015 10 16.0934 0 0
2:35 am 02:35 Cloudy 55 12.5 47 8.3 76 76 NNW 7 11 29.97 1015 10 16.0934 0 0
2:55 am 02:55 Cloudy 55 12.5 47 8.1 75 75 NNW 6 9 29.97 1015 10 16.0934 0 0
3:15 am 03:15 Mostly Cloudy 55 12.5 47 8.1 75 75 NNW 3 6 29.97 1015 10 16.0934 0 0
3:35 am 03:35 Mostly Cloudy 55 12.5 47 8.3 76 76 N 3 6 29.97 1015 10 16.0934 0 0
3:55 am 03:55 Cloudy 55 12.5 47 8.3 76 76 NNW 6 9 29.97 1015 10 16.0934 0 0
4:15 am 04:15 Cloudy 55 12.5 47 8.1 75 75 NNW 5 7 30 1016 10 16.0934 0 0
4:35 am 04:35 Cloudy 55 12.5 47 8.1 75 75 NNW 3 6 30 1016 10 16.0934 0 0
4:55 am 04:55 Cloudy 55 12.5 47 8.3 76 76 NNW 3 6 30 1016 10 16.0934 0 0
5:15 am 05:15 Cloudy 55 12.5 48 8.7 78 78 NNW 3 6 30 1016 10 16.0934 0 0
5:35 am 05:35 Cloudy 55 12.5 48 8.8 78 78 Calm 30 1016 10 16.0934 0 0
5:55 am 05:55 Cloudy 55 12.5 47 8.5 77 77 NNW 3 6 30 1016 10 16.0934 0 0
6:15 am 06:15 Cloudy 55 12.5 48 8.7 78 78 NNW 3 6 30 1016 10 16.0934 0 0
6:35 am 06:35 Cloudy 55 12.5 48 9 79 79 NW 3 6 30 1016 10 16.0934 0 0
6:55 am 06:55 Cloudy 55 12.5 48 9 79 79 NNW 3 6 30 1016 10 16.0934 0 0
7:15 am 07:15 Cloudy 55 12.5 48 9 79 79 Calm 30.03 1017 10 16.0934 0 0
7:35 am 07:35 Mostly Cloudy 55 12.5 49 9.4 82 82 Calm 30.03 1017 10 16.0934 0 0
7:55 am 07:55 Partly Cloudy 55 12.5 50 9.8 84 84 Calm 30.03 1017 10 16.0934 0 0
8:15 am 08:15 Partly Cloudy 55 12.5 49 9.7 83 83 Calm 30.03 1017 10 16.0934 0 0
8:35 am 08:35 Partly Cloudy 55 12.5 48 9.1 80 80 Calm 30.03 1017 10 16.0934 0 0
8:55 am 08:55 Sunny 57 13.8 50 10.1 79 79 Calm 30.03 1017 10 16.0934 0 0
9:15 am 09:15 Sunny 57 13.8 49 9.4 75 75 Calm 30.06 1018 10 16.0934 0 0
9:35 am 09:35 Sunny 60 15.3 50 10.2 72 72 Calm 30.06 1018 10 16.0934 0 0
9:55 am 09:55 Sunny 60 15.5 49 9.2 66 66 WNW 3 6 30.03 1017 10 16.0934 0 0
10:15 am 10:15 Sunny 61 16 49 9.4 65 65 WNW 6 9 30.03 1017 10 16.0934 0 0
10:35 am 10:35 Sunny 62 16.6 48 9 61 61 NW 3 6 30.03 1017 10 16.0934 0 0
10:55 am 10:55 Sunny 63 17 47 8.2 56 56 NW 8 13 30.03 1017 10 16.0934 0 0
11:15 am 11:15 Partly Cloudy 63 17 45 7.2 53 53 W 5 7 30.03 1017 10 16.0934 0 0
11:35 am 11:35 Mostly Cloudy 62 16.6 44 6.6 52 52 NW 8 13 30.03 1017 10 16.0934 0 0
11:55 am 11:55 Partly Cloudy 64 17.5 44 6.9 50 50 WNW 5 7 30.03 1017 10 16.0934 0 0
12:15 pm 12:15 Mostly Cloudy 65 18.5 45 7.1 48 48 NW 18 30 30.06 1018 10 16.0934 0 0
12:35 pm 12:35 Partly Cloudy 66 19.1 44 6.5 44 44 NW 10 17 30.03 1017 10 16.0934 0 0
12:55 pm 12:55 Partly Cloudy 69 20.8 45 7.4 42 42 NNW 12 19 30.03 1017 10 16.0934 0 0
1:15 pm 13:15 Partly Cloudy 69 20.8 43 6.3 39 39 NNW 7 11 30.03 1017 10 16.0934 0 0
1:35 pm 13:35 Partly Cloudy 69 20.3 42 5.6 38 38 W 3 6 30.03 1017 10 16.0934 0 0
1:55 pm 13:55 Partly Cloudy 69 20.8 41 4.8 35 35 NNW 9 15 30.03 1017 10 16.0934 0 0
2:15 pm 14:15 Partly Cloudy 69 20.8 40 4.6 35 35 NW 8 13 30.03 1017 10 16.0934 0 0
2:35 pm 14:35 Partly Cloudy 69 20.8 37 3 31 31 NNW 6 9 30.03 1017 10 16.0934 0 0
2:55 pm 14:55 Partly Cloudy 69 20.8 37 2.8 31 31 WNW 8 13 30.03 1017 10 16.0934 0 0
3:15 pm 15:15 Partly Cloudy 69 20.8 35 1.6 28 28 NNW 7 11 30.03 1017 10 16.0934 0 0
3:35 pm 15:35 Sunny 69 20.8 35 1.9 29 29 NW 8 13 30.03 1017 10 16.0934 0 0
3:55 pm 15:55 Partly Cloudy 69 20.8 37 2.6 30 30 NNW 8 13 30.03 1017 10 16.0934 0 0
4:15 pm 16:15 Mostly Cloudy 69 20.8 36 2.2 29 29 NNW 7 11 30.03 1017 10 16.0934 0 0
4:35 pm 16:35 Mostly Cloudy 70 21 35 1.5 28 28 NNW 9 15 30.03 1017 10 16.0934 0 0
4:55 pm 16:55 Mostly Cloudy 69 20.8 37 3 31 31 WNW 7 11 30.03 1017 10 16.0934 0 0
5:15 pm 17:15 Partly Cloudy 69 20.8 36 2 29 29 W 12 19 30.03 1017 10 16.0934 0 0
5:35 pm 17:35 Partly Cloudy 69 20.8 40 4.4 34 34 WNW 6 9 30.03 1017 10 16.0934 0 0
5:55 pm 17:55 Partly Cloudy 69 20.6 41 5.2 37 37 W 6 9 30.03 1017 10 16.0934 0 0
6:15 pm 18:15 Partly Cloudy 67 19.2 42 5.7 41 41 Calm 30.03 1017 10 16.0934 0 0
6:35 pm 18:35 Sunny 64 17.8 43 6 46 46 NW 3 6 30.03 1017 10 16.0934 0 0
6:55 pm 18:55 Partly Cloudy 65 18.1 45 7.4 50 50 Calm 30.03 1017 10 16.0934 0 0
7:15 pm 19:15 Partly Cloudy 64 17.9 46 7.8 52 52 Calm 30.03 1017 10 16.0934 0 0
7:35 pm 19:35 Sunny 62 16.6 48 8.8 60 60 Calm 30.03 1017 10 16.0934 0 0
7:55 pm 19:55 Clear 60 15.3 50 9.8 70 70 Calm 30.06 1018 10 16.0934 0 0
8:15 pm 20:15 Clear 57 13.8 49 9.4 75 75 Calm 30.06 1018 10 16.0934 0 0
8:35 pm 20:35 Clear 55 12.7 49 9.2 79 79 Calm 30.06 1018 10 16.0934 0 0
8:55 pm 20:55 Clear 55 12.5 48 9 79 79 Calm 30.06 1018 10 16.0934 0 0
9:15 pm 21:15 Clear 55 12.5 49 9.4 82 82 Calm 30.09 1019 10 16.0934 0 0
9:35 pm 21:35 Clear 55 12.5 50 10 85 85 Calm 30.09 1019 10 16.0934 0 0
9:55 pm 21:55 Clear 55 12.5 50 10 85 85 Calm 30.09 1019 10 16.0934 0 0
10:15 pm 22:15 Clear 55 12.5 51 10.3 87 87 Calm 30.09 1019 10 16.0934 0 0
10:35 pm 22:35 Clear 52 11 48 9 88 88 Calm 30.09 1019 10 16.0934 0 0
10:55 pm 22:55 Clear 52 11 48 9.1 88 88 Calm 30.09 1019 10 16.0934 0 0
11:15 pm 23:15 Clear 52 11 48 9.1 88 88 Calm 30.09 1019 10 16.0934 0 0
11:35 pm 23:35 Clear 52 11 48 9.1 88 88 Calm 30.12 1020 10 16.0934 0 0
11:55 pm 23:55 Clear 50 10.1 47 8.3 89 89 Calm 30.12 1020 10 16.0934 0 0

Powered by AerisWeather